Tracking 19576 objects as of 18-Feb-2019
HD Live streaming from Space Station
objects crossing your sky now

ITALSAT 1

Track ITALSAT 1 now!
ITALSAT 1 is classified as:


NORAD ID: 21055
Int'l Code: 1991-003A
Perigee: 35,800.2 km
Apogee: 35,960.4 km
Inclination: 14.9 °
Period: 1,440.5 minutes
Semi major axis: 42251 km
RCS: 3.4358 m2 (large)
Launch date: January 15, 1991
Source: Italy (IT)
Launch site: FRENCH GUIANA (FRGUI)
aabbcc
Your satellite tracking list
Your tracking list is empty




NASA's NSSDC Master Catalog

Two Line Element Set (TLE):
1 21055U 91003A   19048.44183852 -.00000291  00000-0  00000+0 0  9995
2 21055  14.8894  13.6468 0018961 337.6454 253.5621  0.99963923 90423
Source of the keplerian elements: AFSPC